Location: Krakow
(50.0830°N, 19.9170°E)
Time: 12:22:34
(UTC+01:00)

Vanguard 1 - All Passes

Search period start: 15 March 2026 00:00
Search period end: 25 March 2026 00:00
Orbit: 653 x 3818 km, 34.2° (Epoch: 14 March)

Date Brightness Start Highest point End Pass type
(mag) Time Alt. Az. Time Alt. Az. Time Alt. Az.
15 Mar - 10:30:29 10° SSW 10:32:34 13° S 10:34:48 10° SSE daylight
15 Mar - 12:50:21 10° SSW 12:51:39 11° S 12:53:04 10° S daylight
16 Mar - 10:49:37 10° SSW 10:51:33 12° S 10:53:38 10° SSE daylight
17 Mar - 08:50:45 10° S 08:51:41 11° S 08:52:37 10° SSE daylight
17 Mar - 11:09:10 10° SSW 11:10:33 11° S 11:12:00 10° SSE daylight
18 Mar - 09:09:07 10° SSW 09:10:39 11° S 09:12:11 10° SSE daylight
19 Mar - 09:28:01 10° SSW 09:29:38 12° S 09:31:13 10° SSE daylight
20 Mar - 07:28:10 10° S 07:29:42 11° S 07:31:08 10° SSE daylight
20 Mar - 09:47:22 10° SSW 09:48:35 11° S 09:49:49 10° S daylight
21 Mar - 07:46:25 10° SSW 07:48:43 13° S 07:50:48 10° SSE daylight
22 Mar - 05:47:04 10° S 05:48:31 11° SSE 05:49:53 10° SSE daylight
22 Mar - 08:05:09 10° SSW 08:07:42 13° S 08:10:00 10° SSE daylight
23 Mar - 06:04:22 10° SSW 06:07:36 13° S 06:10:19 10° SE daylight
23 Mar - 08:24:11 10° SW 08:26:40 13° S 08:28:55 10° SSE daylight
24 Mar - 06:22:37 10° SSW 06:26:40 16° S 06:29:54 10° SE daylight
24 Mar - 08:43:31 10° SW 08:45:37 12° SSW 08:47:33 10° SSE daylight
